Delta Virtual Airport Information Service

Washington Ronald Reagan National Airport

ICAO: KDCA Country: United States
Latitude: 38.8521 Longitude: -77.0377
Latest Arrival : JBU1580 (2) (KFLL-KDCA) Latest Departure : DAL1960 (1) (KDCA-KDTW)


WX CaptureLIVE
Data provided by noaa.gov | Fetched at 02:33:55

METAR : KDCA 300652Z 17007KT 10SM FEW048 OVC140 08/05 A3012 RMK AO2 SLP199 T00830050 $

TAF : KDCA 300652Z 17007KT 10SM FEW048 OVC140 08/05 A3012 RMK AO2 SLP199 T00830050 $


Runway Data for KDCA
Data provided by openaviationdata.com

Runway ID Mag Var Hdg Length Elevation Surface ILS Freq ILS Id ILS Slope
1 -10 6875 ft 15 ft Asphalt 109.9 IDCA 3
4 -10 35° 4914 ft 15 ft Asphalt -- -- --
15 -10 152° 5190 ft 15 ft Asphalt -- -- --
19 -10 185° 6875 ft 15 ft Asphalt 109.9 0
22 -10 215° 4914 ft 15 ft Asphalt -- -- --
33 -10 332° 5190 ft 15 ft Asphalt -- -- --

Washington Ronald Reagan National Airport, United States
Use only for reference purposes



Not for navigational purposes.